JCSAT-110A (JCSAT-15)

Last updated on Thu Nov 21 2024 00:02:43 GMT+0000 (Coordinated Universal Time)

1 41903U 16082A 24324.74533696 -.00000349 00000+0 00000+0 0 9997 2 41903 0.0156 309.1044 0000851 341.1905 147.3701 1.00269139 28991
UTC large
Height (km)
Speed (km/s)
/
Latitude / Longitude
Inclination (degrees)
Orbital Period (minutes)
Azimuth
Elevation
Range (km)
Doppler Factor

Next 0 passes for location: London (51.5072 / 0.1276)

Sorry there are no passes over London.